Regional Weather Roundup
Issued by NWS Upton, NY

Home | Current Version | Previous Version | Text Only | Print | Product List | Glossary On
Versions: 1 2 3 4 5 6 7 8 9 10 11 12 13 14 15 16 17 18 19 20 21 22 23 24 25 26 27 28 29 30 31 32 33 34 35 36 37 38 39 40 41 42 43 44 45 46 47 48 49 50
000
ASUS41 KOKX 251107
RWROKX

REGIONAL WEATHER ROUNDUP
NATIONAL WEATHER SERVICE NEW YORK NY
700 AM EDT SAT APR 25 2015

NOTE: "FAIR" INDICATES FEW OR NO CLOUDS BELOW 12,000 FEET WITH NO
SIGNIFICANT WEATHER AND/OR OBSTRUCTIONS TO VISIBILITY.

NYZ071-072-176-178-NJZ106-104-251200-
NEW YORK CITY METRO AREA


CITY           SKY/WX    TMP DP  RH WIND       PRES   REMARKS
CENTRAL PARK   CLEAR     38  22  52 MISG      29.93F
LAGUARDIA APRT PTCLDY    39  23  52 W10       29.91S WCI  32
KENNEDY INTL   PTCLDY    40  22  48 NW13      29.92F WCI  32
NEWARK/LIBERTY PTCLDY    39  23  52 W9        29.93S WCI  33
BRNX BOT. GARD   N/A     37  23  56 W15       29.93S WCI  28
TETERBORO      CLEAR     37  23  56 W6        29.92S WCI  32
$$

NYZ177-179-078>081-251200-
LONG ISLAND NEW YORK

CITY           SKY/WX    TMP DP  RH WIND       PRES   REMARKS
FARMINGDALE    SUNNY     38  22  52 W8        29.91S WCI  32
ISLIP          MOSUNNY   36  23  59 W8        29.88S WCI  30
SHIRLEY        SUNNY     36  25  64 W8        29.90S WCI  30
WESTHAMPTON    SUNNY     33  24  69 W6        29.90R WCI  28
MONTAUK POINT    N/A     40  25  55 W13G22    29.87R WCI  32
$$

NYZ052-065-067-251200-
HUDSON VALLEY

CITY           SKY/WX    TMP DP  RH WIND       PRES   REMARKS
WHITE PLAINS   CLEAR     36  22  56 W9        29.87F WCI  29
NEWBURGH       CLEAR     30  25  80 W9        29.90S WCI  22
MONTGOMERY     CLEAR     34  22  61 W8        29.89S WCI  27
POUGHKEEPSIE   CLEAR     29  23  78 CALM      29.89S
ALBANY         MOSUNNY   34  23  64 W10       29.88R WCI  26
$$

NJZ001-105-106-008-010-013-015-019>022-104-251200-
NEW JERSEY

CITY           SKY/WX    TMP DP  RH WIND       PRES   REMARKS
NEWARK/LIBERTY PTCLDY    39  23  52 W9        29.93S WCI  33
TETERBORO      CLEAR     37  23  56 W6        29.92S WCI  32
CALDWELL       CLEAR     36  23  59 S3        29.94R
MORRISTOWN     CLEAR     30  25  80 CALM      29.93R
SOMERVILLE     CLEAR     30  23  75 CALM      29.93R
SUSSEX         CLEAR     32  23  69 W5        29.92S WCI  27
ANDOVER          N/A     30  25  81 S3        29.93R
TRENTON        PTCLDY    37  21  52 W6        29.94R WCI  32
MILLVILLE      CLEAR     30  26  85 W3        29.96S
ATLANTIC CITY  CLEAR     34  23  64 W6        29.96R WCI  29
WRIGHTSTOWN    PTCLDY    38  23  54 W8        29.93R WCI  32
TOMS RIVER     CLEAR     32  27  80 NW6       29.95R WCI  26
BELMAR         CLEAR     36  19  51 CALM      29.94R
$$

PAZ047>061-062-071-251200-
EASTERN PENNSYLVANIA

CITY           SKY/WX    TMP DP  RH WIND       PRES   REMARKS
PHILADELPHIA   MOCLDY    41  21  44 W10       29.98R
ALLENTOWN      CLEAR     35  22  58 CALM      29.95R
SCRANTON       CLEAR     34  22  61 W5        29.93R WCI  30
$$

CTZ002-004>006-009-010-012-RIZ004-006-007-MAZ004-011-015-251200-
SOUTHERN NEW ENGLAND
 IN CT

CITY           SKY/WX    TMP DP  RH WIND       PRES   REMARKS
BRADLEY INTL   SUNNY     37  23  56 W9        29.84R WCI  30
HARTFORD       SUNNY     36  22  56 SW8G16    29.86R WCI  30
DANBURY        SUNNY     32  20  61 W6        29.88S WCI  26
WTRBRY/OXFORD  SUNNY     32  18  55 CALM      29.86R
BRIDGEPORT     SUNNY     36  25  64 W7        29.89R WCI  30
MERIDEN        SUNNY     30  24  78 CALM      29.88R
NEW HAVEN      SUNNY     35  22  58 CALM      29.88R
CHESTER        FAIR      34  23  64 W6        29.85R WCI  29
GROTON         SUNNY     36  22  56 W10       29.85S WCI  28
WILLIMANTIC    SUNNY     34  22  61 SW5       29.84R WCI  30

 IN RI

CITY           SKY/WX    TMP DP  RH WIND       PRES   REMARKS
PROVIDENCE     SUNNY     35  22  58 W12       29.82S WCI  27
BLOCK ISLAND   SUNNY     37  23  56 W14       29.85R WCI  29
WESTERLY       SUNNY     35  22  58 W6        29.85S WCI  30

 IN MA

CITY           SKY/WX    TMP DP  RH WIND       PRES   REMARKS
BOSTON         MOSUNNY   37  23  56 W9        29.79R WCI  30
WORCESTER      SUNNY     32  21  64 W9        29.76R WCI  24
WESTFIELD      SUNNY     36  22  56 NW7       29.83R WCI  30
PROVINCETOWN   SUNNY    N/A N/A N/A NW16G23   29.78R
NANTUCKET      SUNNY     40  25  55 W13       29.80R WCI  32
$$

ANZ330-335-338-340-345-350-353-355-251200-
COASTAL MARINE OBSERVATIONS


STATION/POSITION TIME  SKY/WX   TEMP    WIND        PRES    VSBY  WAVE
                                AIR SEA DIR/SP/G                  HT/PER
                 (UTC)          (F)     (DEG/KT/KT) (MB)    (MI)  (FT/S)
NY HARB ENTRANCE 1050            41 44  300/ 19/ 21 1012.6          3/ 4
4S FIRE IS       1003               43                N/A           2/ 4
20S FIRE ISLAND  1050            40 43  310/ 17/ 21 1012.5          4/ 5
23SW MTP         0950                                 N/A           3/ 5
HUDSON CANYON    NOT AVBL
EXECUTION ROCKS  NOT AVBL
WESTERN LI SOUND NOT AVBL
CENTRAL LI SOUND NOT AVBL
EASTERN LI SOUND 1000            38     280/ 16/ 19   N/A
ROBBINS REEF     1000            38     290/ 10/ 13 1012.2
$$


>>>>>>>>>>>>>>>>>>>>>>>>>>>> KEY <<<<<<<<<<<<<<<<<<<<<<<<<<<
>                                                          <
>     SKY/WX - SKY CONDITION/PRESENT WEATHER               <
>     TMP    - TEMPERATURE IN FAHRENHEIT                   <
>     DP     - DEWPOINT IN FAHRENHEIT                      <
>     RH     - RELATIVE HUMIDITY IN PERCENT                <
>     WIND   - DIRECTION AND SPEED IN MPH                  <
>     PRES   - MEAN SEA LEVEL PRESSURE IN INCHES OF HG     <
>     WCI    - WIND CHILL INDEX                            <
>     VSB    - VISIBILITY IN MILES                         <
>     HX     - HEAT INDEX                                  <
>     TC     - TEMPERATURE IN CELSIUS                      <
>     VRB    - VARIABLE WIND DIRECTION                     <
>                                                          <
>>>>>>>>>>>>>>>>>>>>>>>>>>>> KEY <<<<<<<<<<<<<<<<<<<<<<<<<<<




USA.gov is the U.S. government's official web portal to all federal, state and local government web resources and services.